| time (UTC) | temp C | wind direction | speed KPH | gust KPH | rain 1hr cm | rain 24hr cm | rain mn cm | humidity % | barometer mb |
| 20260906103050 | 35 | 82 | 1.6 | 6.4 | 0.00 | 0.00 | 0.00 | 37 | 1016.4 |
| 20260906101502 | 34 | 317 | 1.6 | 9.7 | 0.00 | 0.00 | 0.00 | 37 | 1016.6 |
| 20260906100019 | 34 | 67 | 1.6 | 6.4 | 0.00 | 0.00 | 0.00 | 38 | 1016.5 |
| 20260906094533 | 33 | 89 | 4.8 | 9.7 | 0.00 | 0.00 | 0.00 | 37 | 1016.5 |
| 20260906093045 | 33 | 62 | 3.2 | 9.7 | 0.00 | 0.00 | 0.00 | 37 | 1016.7 |
| 20260906091559 | 33 | 86 | 3.2 | 12.9 | 0.00 | 0.00 | 0.00 | 39 | 1016.7 |
| 20260906090012 | 33 | 21 | 3.2 | 11.3 | 0.00 | 0.00 | 0.00 | 38 | 1016.9 |
| 20260906084531 | 33 | 67 | 3.2 | 12.9 | 0.00 | 0.00 | 0.00 | 39 | 1016.9 |
| 20260906083040 | 33 | 98 | 1.6 | 9.7 | 0.00 | 0.00 | 0.00 | 32 | 1016.9 |
| 20260906081557 | 32 | 80 | 1.6 | 9.7 | 0.00 | 0.00 | 0.00 | 33 | 1016.9 |
| 20260906080004 | 32 | 184 | 0.0 | 4.8 | 0.00 | 0.00 | 0.00 | 33 | 1016.9 |
| 20260906074520 | 32 | 107 | 1.6 | 8.0 | 0.00 | 0.00 | 0.00 | 33 | 1016.9 |
| 20260906073029 | 31 | 94 | 0.0 | 6.4 | 0.00 | 0.00 | 0.00 | 34 | 1016.8 |
| 20260906071545 | 31 | 84 | 1.6 | 6.4 | 0.00 | 0.00 | 0.00 | 34 | 1016.7 |
| 20260906070059 | 30 | 70 | 1.6 | 6.4 | 0.00 | 0.00 | 0.00 | 35 | 1016.7 |
| 20260906064512 | 30 | 95 | 0.0 | 3.2 | 0.00 | 0.00 | 0.00 | 35 | 1016.5 |
| 20260906063025 | 30 | 46 | 1.6 | 4.8 | 0.00 | 0.00 | 0.00 | 36 | 1016.4 |
| 20260906061538 | 30 | 60 | 0.0 | 3.2 | 0.00 | 0.00 | 0.00 | 37 | 1016.2 |
| 20260906060052 | 30 | 286 | 0.0 | 0.0 | 0.00 | 0.00 | 0.00 | 37 | 1016.1 |
| 20260906054504 | 28 | 286 | 0.0 | 0.0 | 0.00 | 0.00 | 0.00 | 40 | 1016.0 |
| 20260906053022 | 27 | 286 | 0.0 | 0.0 | 0.00 | 0.00 | 0.00 | 40 | 1016.0 |
| 20260906051534 | 26 | 286 | 0.0 | 0.0 | 0.00 | 0.00 | 0.00 | 42 | 1015.9 |
| 20260906050052 | 24 | 285 | 0.0 | 0.0 | 0.00 | 0.00 | 0.00 | 43 | 1016.0 |
| 20260906044502 | 22 | 286 | 0.0 | 1.6 | 0.00 | 0.00 | 0.00 | 45 | 1016.0 |
| 20260906043018 | 22 | 285 | 0.0 | 0.0 | 0.00 | 0.00 | 0.00 | 46 | 1015.8 |
| 20260906041536 | 22 | 285 | 0.0 | 1.6 | 0.00 | 0.00 | 0.00 | 45 | 1015.5 |
| 20260906040049 | 22 | 286 | 0.0 | 1.6 | 0.00 | 0.00 | 0.00 | 44 | 1015.5 |
| 20260906034600 | 22 | 285 | 0.0 | 1.6 | 0.00 | 0.00 | 0.00 | 44 | 1015.4 |
| 20260906033033 | 21 | 285 | 0.0 | 1.6 | 0.00 | 0.00 | 0.00 | 46 | 1015.3 |
| 20260906031531 | 21 | 285 | 0.0 | 0.0 | 0.00 | 0.00 | 0.00 | 46 | 1015.3 |
| 20260906030053 | 21 | 285 | 0.0 | 0.0 | 0.00 | 0.00 | 0.00 | 46 | 1015.2 |
| 20260906024508 | 21 | 286 | 0.0 | 1.6 | 0.00 | 0.00 | 0.00 | 47 | 1014.9 |
| 20260906023024 | 21 | 286 | 0.0 | 1.6 | 0.00 | 0.00 | 0.00 | 46 | 1014.9 |
| 20260906021539 | 21 | 285 | 0.0 | 0.0 | 0.00 | 0.00 | 0.00 | 46 | 1015.0 |
| 20260906014508 | 21 | 286 | 0.0 | 1.6 | 0.00 | 0.00 | 0.00 | 46 | 1015.0 |
| 20260906013025 | 22 | 285 | 0.0 | 1.6 | 0.00 | 0.00 | 0.00 | 46 | 1015.1 |
| 20260906011544 | 22 | 285 | 0.0 | 1.6 | 0.00 | 0.00 | 0.00 | 46 | 1015.2 |
| 20260906010059 | 22 | 285 | 0.0 | 0.0 | 0.00 | 0.00 | 0.00 | 45 | 1015.2 |
| 20260906004513 | 22 | 285 | 0.0 | 1.6 | 0.00 | 0.00 | 0.00 | 47 | 1015.2 |
| 20260906003012 | 22 | 285 | 0.0 | 0.0 | 0.00 | 0.00 | 0.00 | 47 | 1015.2 |
| 20260906001529 | 22 | 285 | 0.0 | 1.6 | 0.00 | 0.00 | 0.00 | 46 | 1015.3 |
| 20260906000047 | 22 | 286 | 0.0 | 1.6 | 0.00 | 0.00 | 0.00 | 45 | 1015.2 |
| 20260905234603 | 23 | 285 | 0.0 | 0.0 | 0.00 | 0.00 | 0.00 | 44 | 1015.3 |
| 20260905233014 | 23 | 286 | 0.0 | 1.6 | 0.00 | 0.00 | 0.00 | 44 | 1015.4 |
| 20260905231551 | 23 | 285 | 0.0 | 1.6 | 0.00 | 0.00 | 0.00 | 43 | 1015.6 |
| 20260905230005 | 23 | 285 | 1.6 | 3.2 | 0.00 | 0.00 | 0.00 | 42 | 1015.8 |
| 20260905224532 | 23 | 285 | 0.0 | 1.6 | 0.00 | 0.00 | 0.00 | 42 | 1015.9 |
| 20260905223039 | 23 | 285 | 0.0 | 1.6 | 0.00 | 0.00 | 0.00 | 42 | 1015.9 |
| 20260905221602 | 23 | 285 | 0.0 | 0.0 | 0.00 | 0.00 | 0.00 | 42 | 1016.0 |
| 20260905220010 | 24 | 285 | 0.0 | 3.2 | 0.00 | 0.00 | 0.00 | 41 | 1015.9 |
| 20260905214528 | 24 | 306 | 0.0 | 4.8 | 0.00 | 0.00 | 0.00 | 40 | 1015.8 |
| 20260905213050 | 25 | 306 | 1.6 | 4.8 | 0.00 | 0.00 | 0.00 | 41 | 1016.0 |
| 20260905211502 | 25 | 296 | 0.0 | 0.0 | 0.00 | 0.00 | 0.00 | 40 | 1016.0 |
| 20260905210043 | 26 | 296 | 0.0 | 1.6 | 0.00 | 0.00 | 0.00 | 38 | 1016.0 |
| 20260905204558 | 26 | 304 | 0.0 | 4.8 | 0.00 | 0.00 | 0.00 | 39 | 1016.0 |
| 20260905203004 | 25 | 176 | 0.0 | 1.6 | 0.00 | 0.00 | 0.00 | 40 | 1016.0 |
| 20260905201516 | 26 | 176 | 0.0 | 0.0 | 0.00 | 0.00 | 0.00 | 39 | 1015.8 |
| 20260905200011 | 27 | 176 | 0.0 | 4.8 | 0.00 | 0.00 | 0.00 | 38 | 1015.9 |
| 20260905194513 | 27 | 121 | 0.0 | 3.2 | 0.00 | 0.00 | 0.00 | 38 | 1016.0 |
| 20260905193028 | 27 | 295 | 1.6 | 6.4 | 0.00 | 0.00 | 0.00 | 37 | 1016.0 |
| 20260905191534 | 27 | 316 | 3.2 | 6.4 | 0.00 | 0.00 | 0.00 | 38 | 1015.9 |
| 20260905190047 | 27 | 283 | 1.6 | 6.4 | 0.00 | 0.00 | 0.00 | 38 | 1016.0 |
| 20260905184602 | 27 | 250 | 1.6 | 8.0 | 0.00 | 0.00 | 0.00 | 38 | 1016.0 |
| 20260905183009 | 27 | 236 | 0.0 | 4.8 | 0.00 | 0.00 | 0.00 | 38 | 1015.9 |
| 20260905181523 | 27 | 313 | 1.6 | 9.7 | 0.00 | 0.00 | 0.00 | 38 | 1015.7 |
| 20260905180032 | 27 | 264 | 0.0 | 6.4 | 0.00 | 0.00 | 0.00 | 38 | 1015.5 |
| 20260905174553 | 28 | 240 | 3.2 | 6.4 | 0.00 | 0.00 | 0.00 | 38 | 1015.5 |
| 20260905173100 | 28 | 298 | 1.6 | 8.0 | 0.00 | 0.00 | 0.00 | 38 | 1015.4 |
| 20260905171518 | 28 | 202 | 4.8 | 12.9 | 0.00 | 0.00 | 0.00 | 38 | 1015.2 |
| 20260905170022 | 28 | 46 | 1.6 | 11.3 | 0.00 | 0.00 | 0.00 | 37 | 1015.1 |
| 20260905164537 | 29 | 238 | 3.2 | 9.7 | 0.00 | 0.00 | 0.00 | 37 | 1015.1 |
| 20260905163016 | 30 | 151 | 3.2 | 12.9 | 0.00 | 0.00 | 0.00 | 35 | 1015.2 |
| 20260905161528 | 31 | 251 | 4.8 | 12.9 | 0.00 | 0.00 | 0.00 | 34 | 1015.3 |
| 20260905160109 | 31 | 220 | 6.4 | 16.1 | 0.00 | 0.00 | 0.00 | 33 | 1015.2 |
| 20260905154559 | 31 | 153 | 4.8 | 16.1 | 0.00 | 0.00 | 0.00 | 32 | 1015.3 |
| 20260905153014 | 31 | 180 | 8.0 | 17.7 | 0.00 | 0.00 | 0.00 | 32 | 1015.3 |
| 20260905151518 | 31 | 132 | 4.8 | 19.3 | 0.00 | 0.00 | 0.00 | 32 | 1015.3 |
| 20260905150030 | 31 | 283 | 4.8 | 17.7 | 0.00 | 0.00 | 0.00 | 32 | 1015.2 |
| 20260905144543 | 32 | 203 | 9.7 | 16.1 | 0.00 | 0.00 | 0.00 | 33 | 1015.2 |
| 20260905143052 | 31 | 223 | 9.7 | 17.7 | 0.00 | 0.00 | 0.00 | 34 | 1015.1 |
| 20260905141503 | 31 | 174 | 8.0 | 24.1 | 0.00 | 0.00 | 0.00 | 34 | 1015.0 |
| 20260905140017 | 31 | 34 | 8.0 | 22.5 | 0.00 | 0.00 | 0.00 | 34 | 1015.1 |
| 20260905134536 | 31 | 228 | 8.0 | 16.1 | 0.00 | 0.00 | 0.00 | 34 | 1015.2 |
| 20260905133030 | 32 | 235 | 8.0 | 20.9 | 0.00 | 0.00 | 0.00 | 34 | 1015.2 |
| 20260905131541 | 31 | 201 | 8.0 | 20.9 | 0.00 | 0.00 | 0.00 | 34 | 1015.4 |
| 20260905130033 | 32 | 129 | 4.8 | 19.3 | 0.00 | 0.00 | 0.00 | 34 | 1015.3 |
| 20260905124517 | 31 | 98 | 6.4 | 19.3 | 0.00 | 0.00 | 0.00 | 34 | 1015.5 |
| 20260905123020 | 31 | 165 | 9.7 | 22.5 | 0.00 | 0.00 | 0.00 | 34 | 1015.5 |
| 20260905121534 | 31 | 285 | 8.0 | 24.1 | 0.00 | 0.00 | 0.00 | 36 | 1015.6 |
| 20260905120055 | 31 | 150 | 8.0 | 20.9 | 0.00 | 0.00 | 0.00 | 36 | 1015.8 |
| 20260905114559 | 31 | 250 | 8.0 | 20.9 | 0.00 | 0.00 | 0.00 | 36 | 1015.8 |
| 20260905113011 | 31 | 246 | 9.7 | 22.5 | 0.00 | 0.00 | 0.00 | 35 | 1015.9 |
| 20260905111522 | 31 | 328 | 6.4 | 22.5 | 0.00 | 0.00 | 0.00 | 36 | 1015.9 |
| 20260905110036 | 31 | 245 | 9.7 | 22.5 | 0.00 | 0.00 | 0.00 | 35 | 1016.1 |
| 20260905104552 | 31 | 302 | 8.0 | 29.0 | 0.00 | 0.00 | 0.00 | 35 | 1016.1 |